AUTCUBE 2 (43681 NORAD) Tracking and Keplerian Element Data

This shows tracking and keplerian element data for the satellite.

Feedback or suggestion? Click here.




ElementValue
Catalog43681
NameAUTCUBE 2
Epoch Orbit34187
Epoch Day35.01401898
Epoch Year2025
RAAN211.1311
Inclination98.0774
Eccentricity0.0009133
Argument of Perigee287.0643
Mean Anonmoly72.9581
Mean Motion15.04270439
Decay Rate8.279E-05
L11 43681U 18084K 25035.01401898 .00008279 00000+0 59890-3 0 9998
L22 43681 98.0774 211.1311 0009133 287.0643 72.9581 15.04270439341875



Live tracking and technical data element details for AUTCUBE 2 (NORAD 43681). AUTCUBE 2 can be tracked NOW for your location showing map with azimuth and elevation plus other details from your city location.







IsCatalogInMostPopularTable: catalog: 43681, numindb: 332
Update: records affected: 1



GetName: 43681 AUTCUBE 2

Hit Count: updated at: Sat, 24 May 2025 16:29:48 GMT